DW5560 Weather Reports


time (UTC)temp
F
wind
direction
speed
knots
gust
knots
rain 1hr
in
rain 24hr
in
rain mn
in
humidity
%
barometer
mb
20260508102036 73 131 2.6 4.3 0.00 0.00 0.00 40 1020.4
20260508101029 73 128 1.7 5.2 0.00 0.00 0.00 40 1020.4
20260508100045 73 142 3.5 6.1 0.00 0.00 0.00 41 1020.2
20260508095035 72 132 3.5 7.8 0.00 0.00 0.00 41 1020.1
20260508094028 73 129 4.3 7.8 0.00 0.00 0.00 40 1020.3
20260508093021 73 130 3.5 7.0 0.00 0.00 0.00 40 1020.3
20260508092018 73 132 3.5 6.1 0.00 0.00 0.00 40 1020.4
20260508091030 72 134 3.5 7.8 0.00 0.00 0.00 40 1020.4
20260508090022 72 139 6.1 8.7 0.00 0.00 0.00 41 1020.4
20260508085019 73 135 4.3 7.8 0.00 0.00 0.00 40 1020.5
20260508084053 72 96 2.6 8.7 0.00 0.00 0.00 42 1020.4
20260508083024 71 117 2.6 6.1 0.00 0.00 0.00 46 1020.5
20260508082035 71 125 2.6 3.5 0.00 0.00 0.00 43 1020.5
20260508081030 71 133 1.7 4.3 0.00 0.00 0.00 43 1020.3
20260508080023 72 126 3.5 7.0 0.00 0.00 0.00 39 1019.9
20260508075057 73 121 1.7 3.5 0.00 0.00 0.00 37 1019.6
20260508074028 73 123 1.7 5.2 0.00 0.00 0.00 38 1019.5
20260508073025 72 94 2.6 6.1 0.00 0.00 0.00 37 1019.3
20260508072018 72 96 1.7 5.2 0.00 0.00 0.00 36 1019.2
20260508071032 72 157 0.9 8.7 0.00 0.00 0.00 36 1019.0
20260508070023 72 160 7.0 10.4 0.00 0.00 0.00 36 1018.8
20260508065040 73 127 7.0 9.6 0.00 0.00 0.00 36 1018.6
20260508064032 73 159 5.2 13.0 0.00 0.00 0.00 37 1018.5
20260508063025 70 153 7.0 10.4 0.00 0.00 0.00 37 1018.2
20260508062023 70 166 5.2 8.7 0.00 0.00 0.00 38 1018.1
20260508061017 69 148 3.5 6.1 0.00 0.00 0.00 41 1018.0
20260508060026 69 163 4.3 8.7 0.00 0.00 0.00 39 1017.6
20260508055019 67 153 4.3 8.7 0.00 0.00 0.00 40 1017.5
20260508054016 67 165 5.2 7.8 0.00 0.00 0.00 40 1017.3
20260508053027 66 174 5.2 7.8 0.00 0.00 0.00 39 1017.1
20260508052040 66 156 5.2 8.7 0.00 0.00 0.00 39 1017.1
20260508051031 66 150 6.1 10.4 0.00 0.00 0.00 38 1017.2
20260508050046 66 158 5.2 8.7 0.00 0.00 0.00 38 1017.3
20260508045017 66 185 5.2 7.0 0.00 0.00 0.00 37 1017.5
20260508044028 65 178 4.3 6.1 0.00 0.00 0.00 38 1017.6
20260508043020 65 169 5.2 7.8 0.00 0.00 0.00 37 1017.4
20260508042037 64 180 5.2 7.0 0.00 0.00 0.00 39 1017.2
20260508041029 65 169 4.3 7.0 0.00 0.00 0.00 37 1017.3
20260508040043 65 157 5.2 7.0 0.00 0.00 0.00 36 1017.1
20260508035029 65 175 2.6 6.1 0.00 0.00 0.00 37 1016.9
20260508034043 65 190 5.2 7.8 0.00 0.00 0.00 37 1016.8
20260508033019 64 169 4.3 7.0 0.00 0.00 0.00 40 1016.8
20260508032030 64 169 3.5 4.3 0.00 0.00 0.00 40 1016.9
20260508031022 65 170 2.6 4.3 0.00 0.00 0.00 38 1017.2
20260508030034 65 218 1.7 3.5 0.00 0.00 0.00 37 1017.4
20260508025051 66 171 1.7 4.3 0.00 0.00 0.00 36 1017.3
20260508024023 65 134 1.7 4.3 0.00 0.00 0.00 36 1017.4
20260508023055 66 137 1.7 5.2 0.00 0.00 0.00 36 1017.4
20260508022026 66 147 3.5 7.8 0.00 0.00 0.00 36 1017.5
20260508021023 65 130 4.3 7.0 0.00 0.00 0.00 37 1017.8
20260508020016 64 155 3.5 6.1 0.00 0.00 0.00 43 1017.9
20260508015049 64 190 3.5 7.0 0.00 0.00 0.00 44 1017.7
20260508014021 65 168 5.2 7.0 0.00 0.00 0.00 41 1017.6
20260508013015 65 168 7.0 7.8 0.00 0.00 0.00 37 1017.6
20260508012027 66 144 3.5 7.0 0.00 0.00 0.00 39 1017.8
20260508011019 66 138 5.2 7.8 0.00 0.00 0.00 36 1017.7
20260508010032 66 170 7.8 10.4 0.00 0.00 0.00 36 1017.9
20260508005029 66 165 6.1 9.6 0.00 0.00 0.00 38 1017.9
20260508004022 66 179 6.1 7.8 0.00 0.00 0.00 40 1018.0
20260508003034 66 170 5.2 7.8 0.00 0.00 0.00 38 1018.1
20260508002032 65 170 4.3 6.1 0.00 0.00 0.00 39 1018.1
20260508001024 66 158 4.3 8.7 0.00 0.00 0.00 40 1018.1
20260508000018 65 187 3.5 5.2 0.00 0.00 0.00 41 1018.3
20260507235028 66 184 4.3 6.1 0.00 0.00 0.00 41 1018.4
20260507234026 66 180 4.3 6.1 0.00 0.00 0.00 40 1018.8
20260507233039 66 184 3.5 5.2 0.00 0.00 0.00 41 1018.9
20260507232031 65 204 3.5 5.2 0.00 0.00 0.00 42 1018.9
20260507231024 65 173 3.5 7.0 0.00 0.00 0.00 44 1018.9
20260507230021 64 179 4.3 5.2 0.00 0.00 0.00 48 1019.0
20260507225036 64 171 3.5 6.1 0.00 0.00 0.00 47 1019.2
20260507224028 64 188 3.5 6.1 0.00 0.00 0.00 45 1019.4
20260507223026 64 203 3.5 6.1 0.00 0.00 0.00 44 1019.4
20260507222019 65 171 3.5 5.2 0.00 0.00 0.00 43 1019.3
20260507221052 65 167 4.3 6.1 0.00 0.00 0.00 42 1019.3
20260507220024 64 167 4.3 6.1 0.00 0.00 0.00 43 1019.3
20260507215022 64 178 5.2 7.0 0.00 0.00 0.00 45 1019.4
20260507214035 64 191 3.5 4.3 0.00 0.00 0.00 48 1019.5
20260507213029 64 164 3.5 7.8 0.00 0.00 0.00 47 1019.4
20260507212017 64 153 5.2 7.8 0.00 0.00 0.00 46 1019.5
20260507211056 64 164 7.0 8.7 0.00 0.00 0.00 44 1019.4
20260507210028 64 171 7.0 8.7 0.00 0.00 0.00 45 1019.5
20260507205019 63 165 5.2 8.7 0.00 0.00 0.00 48 1019.5
20260507204031 63 177 5.2 7.0 0.00 0.00 0.00 51 1019.6
20260507203048 63 179 4.3 7.0 0.00 0.00 0.00 52 1019.5
20260507202019 63 205 4.3 7.0 0.00 0.00 0.00 53 1019.4
20260507201032 63 176 5.2 7.0 0.00 0.00 0.00 53 1019.4
20260507200023 63 169 4.3 8.7 0.00 0.00 0.00 52 1019.5
20260507195018 63 184 4.3 7.8 0.00 0.00 0.00 51 1019.7
20260507194030 63 156 3.5 7.0 0.00 0.00 0.00 53 1019.6
20260507193021 63 203 5.2 7.8 0.00 0.00 0.00 53 1019.7
20260507192034 63 198 5.2 7.8 0.00 0.00 0.00 54 1019.5
20260507191031 64 185 3.5 7.8 0.00 0.00 0.00 53 1019.7
20260507190024 64 192 5.2 7.0 0.00 0.00 0.00 52 1019.4
20260507185018 64 171 4.3 6.1 0.00 0.00 0.00 50 1019.3
20260507184028 64 175 5.2 7.0 0.00 0.00 0.00 51 1019.2
20260507183023 64 169 6.1 7.0 0.00 0.00 0.00 53 1019.1
20260507182036 65 159 4.3 8.7 0.00 0.00 0.00 47 1019.1
20260507181029 65 154 4.3 7.0 0.00 0.00 0.00 47 1019.2
20260507180023 65 183 2.6 4.3 0.00 0.00 0.00 50 1019.1
20260507175036 66 180 2.6 4.3 0.00 0.00 0.00 47 1019.2
20260507174029 66 176 2.6 6.1 0.00 0.00 0.00 50 1019.2
20260507173043 66 165 3.5 5.2 0.00 0.00 0.00 49 1018.9
20260507172035 66 157 3.5 5.2 0.00 0.00 0.00 56 1018.8
20260507171033 67 351 1.7 2.6 0.00 0.00 0.00 60 1018.9
20260507170026 68 351 0.9 2.6 0.00 0.00 0.00 57 1018.9
20260507165017 68 351 0.9 1.7 0.00 0.00 0.00 56 1018.9
20260507164028 68 351 0.0 1.7 0.00 0.00 0.00 58 1018.9
20260507163024 68 351 0.0 0.9 0.00 0.00 0.00 58 1018.9
20260507162018 68 351 0.0 0.9 0.00 0.00 0.00 58 1018.9
20260507161051 69 351 0.9 1.7 0.00 0.00 0.00 57 1019.1
20260507160023 69 351 1.7 2.6 0.00 0.00 0.00 57 1018.8
20260507155039 69 351 1.7 2.6 0.00 0.00 0.00 54 1018.6
20260507154031 70 351 1.7 3.5 0.00 0.00 0.00 50 1018.4
20260507153023 70 351 1.7 3.5 0.00 0.00 0.00 47 1018.4
20260507152034 71 340 1.7 5.2 0.00 0.00 0.00 45 1018.4
20260507151030 71 331 2.6 4.3 0.00 0.00 0.00 44 1018.5
20260507150023 71 333 1.7 4.3 0.00 0.00 0.00 46 1018.4
20260507145033 70 355 2.6 4.3 0.00 0.00 0.00 43 1018.4
20260507144027 71 338 3.5 7.0 0.00 0.00 0.00 45 1018.7
20260507143024 71 5 4.3 7.0 0.00 0.00 0.00 43 1018.6
20260507142017 72 348 4.3 8.7 0.00 0.00 0.00 40 1018.7
20260507141030 72 332 5.2 9.6 0.00 0.00 0.00 42 1018.8
20260507140022 72 331 6.1 10.4 0.00 0.00 0.00 42 1018.7
20260507135020 72 5 4.3 9.6 0.00 0.00 0.00 43 1018.7
20260507134033 72 348 6.1 9.6 0.00 0.00 0.00 45 1018.6
20260507133026 72 344 8.7 13.0 0.00 0.00 0.00 47 1018.7
20260507132039 74 27 9.6 13.0 0.00 0.00 0.00 46 1018.4
20260507131035 76 319 4.3 9.6 0.00 0.00 0.00 40 1018.6
20260507130027 76 250 2.6 10.4 0.00 0.00 0.00 33 1018.5
20260507125040 76 148 5.2 17.4 0.00 0.00 0.00 30 1018.6
20260507124052 76 123 10.4 17.4 0.00 0.00 0.00 31 1018.7
20260507123026 77 150 7.0 14.8 0.00 0.00 0.00 30 1018.7
20260507122019 76 152 11.3 16.5 0.00 0.00 0.00 30 1018.9
20260507121032 77 148 7.8 15.6 0.00 0.00 0.00 30 1018.9
20260507120025 77 213 6.1 13.0 0.00 0.00 0.00 29 1019.1
20260507115042 77 157 8.7 14.8 0.00 0.00 0.00 30 1019.2
20260507114035 76 81 1.7 8.7 0.00 0.00 0.00 41 1019.1
20260507113027 76 321 3.5 7.8 0.00 0.00 0.00 41 1019.0
20260507112020 75 67 3.5 9.6 0.00 0.00 0.00 44 1019.0
20260507111017 75 348 4.3 8.7 0.00 0.00 0.00 43 1018.9
20260507110028 73 17 6.1 9.6 0.00 0.00 0.00 45 1019.0
20260507105020 74 5 2.6 10.4 0.00 0.00 0.00 46 1019.0
20260507104054 73 360 7.0 10.4 0.00 0.00 0.00 46 1019.0
20260507103030 74 349 4.3 8.7 0.00 0.00 0.00 46 1018.9